Location: Bannatyne
(13.0833°N, 59.5333°W)
Time: 17:03:01
(UTC+00:00)

ISS - Pass Details

Date: 19 June 2021
Orbit: 419 x 421 km, 51.6° (Epoch: 02 August)

Event Time Altitude Azimuth Distance (km) Brightness Sun altitude
Exits shadow 08:17:12 15° 169° (SSE) 1,242 -1.6 -17.2°
Maximum altitude 08:19:06 23° 125° (SE) 944 -1.7 -16.8°
Drops below altitude 10° 08:21:48 10° 71° (ENE) 1,488 0.3 -16.2°
Sets 08:24:10 0° 56° (NE) 2,351 1.9 -15.7°
